User: anonymous   Login
Location: Albany
(35.0000°S, 118.0000°E)
Time: 21:58:42
(UTC-04:00)
Language:

Centaur D-1AR AC-48 - Orbit

View from above orbital plane
View from above orbital plane
View from above satellite
View from above satellite

Ground track
Ground track

The orbit data is extracted from the following two-line orbital elements,

1 10779U 78035B   15143.41560968 -.00000152  00000-0  13285-2 0  9990
2 10779 021.8966 332.2558 7184026 266.2577 009.8608 02.22636390301849
Epoch (UTC): 23 May 2015 09:58:28
Eccentricity: 0.7184026
inclination: 21.8966°
perigee height: 598 km
apogee height: 36194 km
right ascension of ascending node: 332.2558°
argument of perigee: 266.2577°
revolutions per day: 2.22636390
mean anomaly at epoch: 9.8608°
orbit number at epoch: 30184

The dashed part of the orbit path shows where the satellite is in the earth's shadow,  

DLR